[[{"header":{"parameterUnit":"m.s-1","parameterCategory":1,"la1":30.2991,"la2":30.254,"lo1":-89.0895,"lo2":-89.0444,"dy":0.0017,"dx":0.0017,"nx":28,"ny":28,"refTime":"2024-05-24T21:00:00:Z","depth":0,"parameterNumber":2,"parameterNumberName":"U-component_of_WINDS"},"data":[0,0,0,0,0,0,0,0,0,0,0,0,0,0,0,0,0,0,0,0,0,0,0,0,0,0,0,0,0,0,0,0,0,0,0,0,0,0,0,0,0,0,0,0,0,0,0,0,0,0,0,0,0,0,0,0,0,0,2.07,2.07,0,2.0673,2.0672,2.0672,2.0596,2.0595,2.0593,2.0592,2.0565,2.0565,2.0566,0,0,0,0,0,0,0,0,0,0,0,0,0,2.0687,2.0688,2.07,2.07,2.0699,2.0673,2.0672,2.0672,2.0597,2.0595,2.0593,2.0591,2.0564,2.0565,2.0566,0,0,0,0,0,0,0,0,0,0,0,0,0,2.068,2.0688,2.07,2.0658,2.0654,2.0673,2.0672,2.0672,2.0597,2.0595,2.0592,2.059,2.0564,2.0565,2.0566,2.0623,0,0,2.057,2.0571,0,0,0,0,0,0,0,0,2.068,2.068,2.0665,2.0661,2.0657,2.0635,2.0658,2.0656,2.0598,2.0619,2.0591,2.0589,2.059,2.0589,2.0589,2.0622,2.0621,2.057,2.0571,2.0571,2.0572,0,0,0,0,0,0,0,2.0681,2.0681,2.0689,2.0665,2.066,2.0641,2.0637,2.0657,2.0619,2.0617,2.0611,2.0609,2.0588,2.0588,2.0588,2.062,2.057,2.0571,2.0572,2.0573,2.0696,2.0699,0,0,0,0,0,0,2.0687,2.0682,2.069,2.0688,2.0663,2.0644,2.0639,2.0645,2.0618,2.0612,2.0611,2.0606,2.0588,2.0587,2.0587,2.065,2.0571,2.0573,2.0573,2.0694,2.0697,2.07,0,0,0,0,0,0,2.0687,2.0689,2.0691,2.0684,2.0682,2.0646,2.0653,2.0646,2.0646,2.0614,2.0607,2.0619,2.0586,2.0585,2.0614,2.0648,2.0573,2.0574,2.0691,2.0695,2.0698,2.0778,0,0,0,0,0,0,2.0687,2.0689,2.071,2.0685,2.0683,2.0719,2.0655,2.0647,2.0648,2.0641,2.0619,2.0614,2.0584,2.0613,2.0616,2.0648,2.0575,2.0687,2.0693,2.0697,2.0772,2.0784,2.0794,0,0,0,0,0,2.0687,2.0734,2.0712,2.0713,2.0709,2.0721,2.072,2.0685,2.0652,2.0672,2.0651,2.0614,2.0645,2.0616,2.0619,2.0653,2.0685,2.0691,2.0697,2.0767,2.0782,2.0794,0,0,0,0,0,0,2.0765,2.073,2.0705,2.0745,2.0737,2.0708,2.0733,2.0701,2.0702,2.0695,2.0651,2.0647,2.0682,2.067,2.064,2.0705,2.0659,2.0665,2.0711,2.0725,2.0736,2.0737,2.0576,0,0,0,0,0,2.0787,2.08,2.0769,2.0807,2.0804,2.077,2.0774,2.0747,2.0737,2.0733,2.0714,2.0706,2.0713,2.0718,2.0724,2.0771,2.0764,2.0795,2.0806,2.0815,2.0821,2.0843,2.0856,2.0719,2.0718,2.0718,0,0,2.0833,2.0815,2.0826,2.0823,2.0813,2.0827,2.0767,2.0785,2.0795,2.0736,2.0761,2.0747,2.0735,2.0773,2.0788,2.0764,2.0858,2.0823,2.083,2.0831,2.085,2.0864,2.0875,2.0722,2.0722,2.0721,0,0,2.0922,2.0911,2.0941,2.0932,2.0918,2.0895,2.0902,2.0878,2.0867,2.0892,2.0847,2.0858,2.0872,2.0865,2.0863,2.0949,2.0914,2.0952,2.1009,2.1032,2.1043,2.1052,2.1081,2.1092,2.0958,2.0959,2.0959,0,2.098,2.0999,2.0961,2.098,2.098,2.0927,2.0957,2.095,2.0939,2.094,2.0913,2.0928,2.0916,2.0951,2.0972,2.0973,2.0979,2.0954,2.1044,2.1053,2.1061,2.1088,2.11,2.0963,2.0963,2.0962,2.0962,0,2.1071,2.1085,2.1111,2.11,2.1102,2.1128,2.1092,2.11,2.1073,2.1053,2.1078,2.1062,2.1062,2.1069,2.1043,2.11,2.1085,2.1052,2.1004,2.108,2.1104,2.1115,2.097,2.0968,2.0967,2.0965,0,0,2.1208,2.1175,2.1185,2.1179,2.1159,2.1169,2.1192,2.1191,2.1198,2.1192,2.1209,2.1222,2.1191,2.1189,2.1162,2.1182,2.1249,2.1146,2.1145,2.1164,2.1308,2.1332,2.1344,2.1227,2.1229,2.123,2.1309,0,2.129,2.1326,2.1292,2.1334,2.1346,2.1296,2.1315,2.1305,2.1287,2.1294,2.1274,2.1283,2.1242,2.124,2.1258,2.1237,2.1277,2.1231,2.1241,2.1242,2.1244,2.1358,2.1382,2.1457,2.1318,2.132,2.1321,0,2.1391,2.1389,2.1432,2.1409,2.1412,2.143,2.1426,2.1435,2.1422,2.1407,2.1405,2.1372,2.1392,2.1347,2.1373,2.1343,2.1345,2.1336,2.1338,2.1335,2.1285,2.1357,2.148,2.1491,2.1336,2.1335,2.1334,0,2.1484,2.1492,2.1519,2.1515,2.1489,2.1503,2.1493,2.1478,2.1479,2.1477,2.1477,2.1477,2.1477,2.1478,2.1446,2.1416,2.1476,2.1428,2.1463,2.1464,2.1476,2.1475,2.16,2.1481,2.1481,2.1481,2.1481,0,2.1579,2.1607,2.156,2.1576,2.1606,2.1567,2.1597,2.1582,2.1569,2.1581,2.1539,2.1551,2.1509,2.1517,2.1493,2.1517,2.1518,2.1506,2.1499,2.1508,2.151,2.1508,2.1501,2.1484,2.1483,2.1483,2.1482,0,2.1687,2.1657,2.1682,2.1655,2.1649,2.1672,2.1648,2.1662,2.1641,2.1657,2.1659,2.1626,2.1633,2.1601,2.1604,2.1587,2.1623,2.1609,2.1627,2.1622,2.1658,2.1654,2.1784,2.1798,2.1673,2.1674,2.1675,0,2.1748,2.1768,2.1743,2.1748,2.174,2.1748,2.1749,2.1712,2.1715,2.1702,2.1717,2.1721,2.1721,2.1735,2.1711,2.1712,2.1696,2.1741,2.1695,2.1704,2.1694,2.1692,2.1693,2.175,2.1752,2.1753,2.1754,0,2.1859,2.1843,2.1846,2.1844,2.1847,2.1844,2.1838,2.1844,2.1803,2.1809,2.1815,2.1816,2.1817,2.1821,2.1817,2.1806,2.1773,2.1769,2.1776,2.1786,2.1795,2.1788,2.1651,2.1765,2.1764,2.1763,2.1763,2.1762,2.1944,2.1959,2.1944,2.1948,2.194,2.1935,2.1946,2.1926,2.1931,2.1928,2.1906,2.1917,2.1903,2.1894,2.1887,2.1894,2.1873,2.1885,2.1887,2.189,2.1896,2.1796,2.1894,2.1894,2.1893,2.1893,2.1893,0,2.2051,2.2039,2.2044,2.2036,2.204,2.2009,2.2,2.2005,2.2014,2.2005,2.2006,2.2013,2.2016,2.1993,2.1993,2.2003,2.1988,2.2004,2.2002,2.2,2.1916,2.1908,2.2016,2.2016,2.2016,2.2016,2.2016,2.2016,2.2107,2.213,2.2113,2.2131,2.2118,2.2127,2.2125,2.212,2.2112,2.2121,2.2123,2.2108,2.2093,2.2091,2.2093,2.2086,2.2087,2.2108,2.2096,2.2018,2.2006,2.1994,2.1987,2.2109,2.211,2.2179,2.2179,2.218]},{"header":{"parameterUnit":"m.s-1","parameterCategory":1,"la1":30.2991,"la2":30.254,"lo1":-89.0895,"lo2":-89.0444,"dy":0.0017,"dx":0.0017,"nx":28,"ny":28,"refTime":"2024-05-24T21:00:00:Z","depth":0,"parameterNumber":3,"parameterNumberName":"V-component_of_WINDS"},"data":[0,0,0,0,0,0,0,0,0,0,0,0,0,0,0,0,0,0,0,0,0,0,0,0,0,0,0,0,0,0,0,0,0,0,0,0,0,0,0,0,0,0,0,0,0,0,0,0,0,0,0,0,0,0,0,0,0,0,4.0038,4.0039,0,4.0116,4.0117,4.0117,4.0089,4.0088,4.0086,4.0084,4.0163,4.0167,4.0171,0,0,0,0,0,0,0,0,0,0,0,0,0,3.9865,3.9869,4.0038,4.0039,4.004,4.0116,4.0117,4.0118,4.009,4.0088,4.0086,4.0084,4.0162,4.0166,4.0171,0,0,0,0,0,0,0,0,0,0,0,0,0,3.9941,3.987,4.0038,4.0035,4.0036,4.0115,4.0117,4.0118,4.009,4.0088,4.0085,4.0083,4.0161,4.0166,4.0172,4.0258,0,0,4.0189,4.0191,0,0,0,0,0,0,0,0,3.9937,3.9948,4.0035,4.0036,4.0036,4.009,4.0085,4.0165,4.0091,4.007,4.0084,4.0081,4.0141,4.0148,4.0168,4.0262,4.0265,4.0189,4.0192,4.0195,4.0196,0,0,0,0,0,0,0,3.9932,3.9944,4.0069,4.0036,4.0037,4.003,4.0038,4.01,4.0119,4.0071,4.0069,4.0079,4.0141,4.0163,4.017,4.0266,4.0189,4.0194,4.0197,4.02,4.0434,4.0437,0,0,0,0,0,0,3.9926,3.994,4.0066,4.0071,3.9979,4.0035,4.0044,4.0076,4.0118,4.0122,4.0081,4.0077,4.0155,4.0163,4.0173,4.0276,4.0195,4.02,4.0203,4.0431,4.0435,4.0438,0,0,0,0,0,0,3.9923,3.9938,4.0063,4.0005,4.0021,4.0041,4.0077,4.0078,4.01,4.0126,4.0129,4.01,4.0153,4.0165,4.0237,4.0279,4.0203,4.0208,4.0428,4.0432,4.0436,4.0485,0,0,0,0,0,0,3.9918,3.9937,3.997,4.0006,4.0024,4.0127,4.0079,4.0082,4.011,4.0106,4.0144,4.0148,4.0152,4.0229,4.0243,4.0285,4.0212,4.0424,4.043,4.0435,4.048,4.049,4.0499,0,0,0,0,0,3.9912,3.9981,3.9972,3.9987,4.0066,4.0129,4.0139,4.0142,4.0114,4.0147,4.0163,4.0147,4.0272,4.0236,4.0252,4.0296,4.0421,4.0428,4.0434,4.0475,4.0488,4.0499,0,0,0,0,0,0,3.9949,3.9986,3.9976,4.0059,4.0091,4.0124,4.0167,4.0156,4.0197,4.0191,4.0193,4.0202,4.0276,4.0294,4.0253,4.0382,4.0342,4.0352,4.0368,4.0381,4.039,4.0385,4.0217,0,0,0,0,0,3.9967,4.0016,4.0045,4.0115,4.0132,4.0147,4.0174,4.0174,4.0207,4.022,4.0242,4.0275,4.0321,4.0352,4.0396,4.0482,4.0489,4.052,4.053,4.0538,4.0547,4.0592,4.0606,4.0459,4.0459,4.0459,0,0,4.0005,4.0031,4.0061,4.0123,4.0148,4.0198,4.0158,4.0213,4.025,4.0229,4.0298,4.0315,4.0352,4.0431,4.0467,4.0448,4.0589,4.0546,4.0553,4.0557,4.06,4.0614,4.0627,4.0463,4.0463,4.0462,0,0,4.0099,4.0123,4.0184,4.021,4.0248,4.0257,4.0272,4.0307,4.0317,4.0387,4.0372,4.0415,4.0496,4.0522,4.0547,4.065,4.0636,4.0664,4.0716,4.076,4.0772,4.0782,4.0819,4.0832,4.0672,4.0672,4.0673,0,4.014,4.0215,4.0217,4.0272,4.03,4.0283,4.0344,4.0369,4.042,4.0439,4.0417,4.0517,4.0541,4.0625,4.065,4.0671,4.0687,4.066,4.077,4.0781,4.079,4.0825,4.0838,4.0676,4.0675,4.0675,4.0675,0,4.0264,4.0316,4.0361,4.041,4.0442,4.0501,4.0511,4.0543,4.054,4.0551,4.0622,4.065,4.0699,4.0719,4.0716,4.0804,4.079,4.0769,4.0729,4.0807,4.084,4.0853,4.068,4.0679,4.0678,4.0677,0,0,4.0384,4.0433,4.0449,4.0471,4.0512,4.0552,4.0609,4.0657,4.0685,4.072,4.0768,4.0836,4.0817,4.0844,4.0844,4.0883,4.0962,4.0857,4.0858,4.0875,4.1059,4.1075,4.109,4.0953,4.0956,4.0958,4.1056,0,4.0481,4.0581,4.0584,4.0676,4.0724,4.0708,4.0758,4.0788,4.08,4.0842,4.0855,4.0903,4.0874,4.0891,4.0929,4.0945,4.0999,4.0938,4.0997,4.0999,4.0988,4.1107,4.1124,4.1215,4.1069,4.1071,4.1072,0,4.0607,4.0646,4.0743,4.0776,4.0796,4.0841,4.0885,4.0925,4.0959,4.0965,4.0995,4.0989,4.1047,4.1005,4.1085,4.1043,4.1067,4.1078,4.1082,4.1088,4.1041,4.1115,4.1244,4.1258,4.1093,4.1091,4.109,0,4.0684,4.0761,4.0829,4.0848,4.0888,4.092,4.0938,4.0969,4.0998,4.1036,4.1054,4.1099,4.1123,4.1158,4.1164,4.1133,4.1244,4.1202,4.125,4.125,4.1274,4.1272,4.1408,4.129,4.129,4.129,4.1289,0,4.0792,4.0851,4.0864,4.0905,4.0971,4.0974,4.1039,4.1055,4.1082,4.1126,4.1116,4.1157,4.1163,4.1205,4.121,4.1275,4.1286,4.1293,4.1293,4.1293,4.1293,4.1309,4.1303,4.1293,4.1292,4.1292,4.1291,0,4.0889,4.09,4.0972,4.1004,4.1014,4.1061,4.1088,4.1128,4.1139,4.1194,4.1208,4.1225,4.1274,4.1284,4.1343,4.1346,4.1423,4.1417,4.1412,4.1411,4.1458,4.1453,4.1609,4.1629,4.1498,4.15,4.1501,0,4.0957,4.1002,4.1039,4.1068,4.1087,4.1134,4.1163,4.1167,4.1197,4.1238,4.1273,4.1322,4.1361,4.1441,4.1458,4.1503,4.1498,4.1549,4.1505,4.1503,4.1498,4.1495,4.15,4.1558,4.1559,4.156,4.1561,0,4.1076,4.1079,4.1121,4.1165,4.12,4.1235,4.1268,4.1292,4.13,4.1335,4.1385,4.1416,4.1475,4.1524,4.1568,4.1586,4.1575,4.1575,4.1589,4.1589,4.1584,4.1587,4.1435,4.1572,4.1571,4.157,4.1569,4.1569,4.116,4.12,4.1231,4.1279,4.1304,4.1335,4.1373,4.1389,4.1431,4.148,4.148,4.1535,4.1566,4.1625,4.1646,4.1689,4.1673,4.1692,4.1697,4.1702,4.1706,4.1577,4.1698,4.1697,4.1697,4.1697,4.1697,0,4.1278,4.1298,4.1341,4.1387,4.1424,4.1411,4.1446,4.1478,4.1527,4.1557,4.1596,4.1654,4.17,4.1721,4.1767,4.1797,4.1793,4.1809,4.1807,4.1811,4.1718,4.1702,4.1812,4.1811,4.1811,4.1811,4.1811,4.1811,4.1344,4.141,4.1416,4.1494,4.1513,4.1567,4.1588,4.1617,4.1641,4.1706,4.1745,4.1758,4.1784,4.1832,4.1874,4.1879,4.1896,4.1914,4.1917,4.1829,4.1818,4.1807,4.1791,4.1918,4.1918,4.2006,4.2006,4.2007]}]]